Weather History for Prague, Czech Republic

Change the Weather History Date:

Tuesday, May 21, 2013

  Actual Average Record
Temperature  
Mean Temperature 54 °F -  
Max Temperature 64 °F 69 °F 82 °F (2007)
Min Temperature 43 °F 49 °F 41 °F (1998)
Degree Days  
Heating Degree Days 12    
Growing Degree Days 4 (Base 50)    
Moisture  
Dew Point 44 °F    
Average Humidity 70    
Maximum Humidity 93    
Minimum Humidity 38    
Precipitation  
Precipitation 0.00 in 0.10 in - ()
Sea Level Pressure  
Sea Level Pressure 29.87 in    
Wind  
Wind Speed 7 mph ()    
Max Wind Speed 14 mph    
Max Gust Speed -    
Visibility 6.2 miles    
Events Rain    
Averages and records for this station are not official NWS values.
T = Trace of Precipitation, MM = Missing Value Source: Averaged Metar Reports

Daily Weather History Graph

Daily Weather History Graph

Search for Another Location

Airport:

Trip Planner

Search our weather history database for the weather conditions in past years. The results will help you decide how hot, cold, wet, or windy it might be!

Date:

Astronomy

May. 21, 2013 Rise Set
Actual Time 5:08 AM CEST 8:51 PM CEST
Civil Twilight 4:28 AM CEST 9:32 PM CEST
Nautical Twilight 3:32 AM CEST 10:28 PM CEST
Astronomical Twilight 2:10 AM CEST 11:52 PM CEST
Moon 4:22 PM CEST (5/21) 2:53 AM CEST (5/21)
Length of Visible Light 17h 03m
Length of Day
15h 42m
Waxing Gibbous, 81% of the Moon is Illuminated
May 21
Waxing Gibbous
May 25
Full
May 31
Last Quarter
Jun 8
New
Jun 16
First Quarter

Hourly Weather History & Observations

Time (CEST) Temp. Windchill Dew Point Humidity Pressure Visibility Wind Dir Wind Speed Gust Speed Precip Events Conditions
12:00 AM 50.0 °F - 44.6 °F 82% 29.89 in - WSW 5.8 mph - N/A   Clear
12:30 AM 51.8 °F - 44.6 °F 76% 29.92 in - WSW 4.6 mph - N/A   Clear
1:00 AM 48.2 °F - 42.8 °F 82% 29.92 in - WSW 5.8 mph - N/A   Clear
1:30 AM 46.4 °F 42.9 °F 42.8 °F 87% 29.92 in - WSW 6.9 mph - N/A   Clear
2:00 AM 46 °F - 43 °F 84% 29.94 in 47 mi WSW 8.9 mph - -   Scattered Clouds
2:00 AM 46.4 °F 41.1 °F 42.8 °F 87% 29.92 in - West 11.5 mph - N/A   Clear
2:30 AM 46.4 °F 41.1 °F 42.8 °F 87% 29.92 in - West 11.5 mph - N/A   Clear
3:00 AM 44.6 °F 39.7 °F 41.0 °F 87% 29.92 in - WSW 9.2 mph - N/A   Clear
3:30 AM 44.6 °F 39.7 °F 41.0 °F 87% 29.92 in - WSW 9.2 mph - N/A   Clear
4:00 AM 44.6 °F 40.2 °F 41.0 °F 87% 29.92 in - SW 8.1 mph - N/A   Clear
4:30 AM 46.4 °F 42.4 °F 41.0 °F 81% 29.92 in - WSW 8.1 mph - N/A   Clear
5:00 AM 42.8 °F 39.3 °F 41.0 °F 93% 29.92 in - SW 5.8 mph - N/A   Clear
5:30 AM 44.6 °F 41.4 °F 41.0 °F 87% 29.92 in - SSW 5.8 mph - N/A   Clear
6:00 AM 44.6 °F 42.2 °F 41.0 °F 87% 29.92 in - South 4.6 mph - N/A   Clear
6:30 AM 48.2 °F - 44.6 °F 87% 29.92 in - South 3.5 mph - N/A   Clear
7:00 AM 50.0 °F - 44.6 °F 82% 29.92 in - South 3.5 mph - N/A   Clear
7:30 AM 51.8 °F - 44.6 °F 76% 29.92 in - South 4.6 mph - N/A   Clear
8:00 AM 52 °F - 45 °F 69% 29.93 in 47 mi SSW 6.7 mph - -   Scattered Clouds
8:00 AM 51.8 °F - 44.6 °F 76% 29.92 in - SSW 5.8 mph - N/A   Clear
8:30 AM 53.6 °F - 44.6 °F 72% 29.92 in - South 4.6 mph - N/A   Clear
9:00 AM 55.4 °F - 44.6 °F 67% 29.92 in 6.2 mi SW 8.1 mph - N/A   Partly Cloudy
9:30 AM 55.4 °F - 44.6 °F 67% 29.89 in 6.2 mi SW 8.1 mph - N/A   Partly Cloudy
10:00 AM 59.0 °F - 46.4 °F 63% 29.89 in 6.2 mi SW 8.1 mph - N/A   Scattered Clouds
10:30 AM 57.2 °F - 42.8 °F 59% 29.89 in 6.2 mi SW 9.2 mph - N/A   Scattered Clouds
11:00 AM 59.0 °F - 44.6 °F 59% 29.89 in 6.2 mi WSW 10.4 mph - N/A   Scattered Clouds
11:30 AM 59.0 °F - 42.8 °F 55% 29.89 in 6.2 mi WSW 9.2 mph - N/A   Mostly Cloudy
12:00 PM 59.0 °F - 42.8 °F 55% 29.89 in 6.2 mi SSW 12.7 mph - N/A   Mostly Cloudy
12:30 PM 60.8 °F - 44.6 °F 55% 29.89 in 6.2 mi WSW 12.7 mph - N/A   Scattered Clouds
1:00 PM 60.8 °F - 44.6 °F 55% 29.86 in 6.2 mi SW 13.8 mph - N/A   Scattered Clouds
1:30 PM 62.6 °F - 44.6 °F 52% 29.86 in 6.2 mi WSW 10.4 mph - N/A   Mostly Cloudy
2:00 PM 62 °F - 43 °F 38% 29.85 in 47 mi WSW 11.2 mph - -   Partly Cloudy
2:00 PM 60.8 °F - 42.8 °F 52% 29.86 in 6.2 mi WSW 8.1 mph - N/A   Partly Cloudy
2:30 PM 62.6 °F - 44.6 °F 52% 29.86 in 6.2 mi West 8.1 mph - N/A   Partly Cloudy
3:00 PM 64.4 °F - 46.4 °F 52% 29.83 in 6.2 mi WNW 6.9 mph - N/A   Partly Cloudy
3:30 PM 64.4 °F - 50.0 °F 59% 29.83 in 6.2 mi WSW 10.4 mph - N/A   Partly Cloudy
3:54 PM 60.8 °F - 48.2 °F 63% 29.83 in 6.2 mi SW 6.9 mph - N/A Rain Light Rain Showers
4:00 PM 62.6 °F - 48.2 °F 59% 29.83 in - SW 6.9 mph - N/A   Clear
4:30 PM 64.4 °F - 42.8 °F 45% 29.83 in - WSW 11.5 mph - N/A   Clear
5:00 PM 60.8 °F - 46.4 °F 59% 29.83 in - West 11.5 mph - N/A   Clear
5:30 PM 59.0 °F - 44.6 °F 59% 29.80 in - West 12.7 mph - N/A   Clear
6:00 PM 59.0 °F - 46.4 °F 63% 29.80 in - WSW 10.4 mph - N/A   Clear
6:30 PM 57.2 °F - 46.4 °F 67% 29.80 in - SW 6.9 mph - N/A   Clear
7:00 PM 60.8 °F - 44.6 °F 55% 29.80 in - WSW 9.2 mph - N/A   Clear
7:30 PM 60.8 °F - 46.4 °F 59% 29.80 in - SW 6.9 mph - N/A   Clear
8:00 PM 55 °F - 46 °F 62% 29.81 in 47 mi SSW 6.7 mph - -   Partly Cloudy
8:00 PM 55.4 °F - 44.6 °F 67% 29.80 in - SSW 5.8 mph - N/A   Clear
8:30 PM 55.4 °F - 46.4 °F 72% 29.80 in - SSW 9.2 mph - N/A   Clear
9:00 PM 53.6 °F - 44.6 °F 72% 29.80 in - SW 11.5 mph - N/A   Clear
9:30 PM 51.8 °F - 44.6 °F 76% 29.80 in - SW 9.2 mph - N/A   Clear
10:00 PM 50.0 °F - 44.6 °F 82% 29.80 in - WSW 9.2 mph - N/A   Clear
10:30 PM 50.0 °F - 44.6 °F 82% 29.80 in - SSW 8.1 mph - N/A   Clear
11:00 PM 48.2 °F - 42.8 °F 82% 29.80 in - South 6.9 mph - N/A   Clear
11:30 PM 50.0 °F - 44.6 °F 82% 29.80 in - South 6.9 mph - N/A   Clear